Weather History for KPGD - December, 2012

Change the Weather History Date:

Friday, December 28, 2012

  Actual Average (KFMY) Record (KFMY)
Temperature  
Mean Temperature 58 °F 65 °F  
Max Temperature 75 °F 75 °F 87 °F (1981)
Min Temperature 42 °F 54 °F 34 °F (2010)
Degree Days  
Heating Degree Days 6 3  
Month to date heating degree days 62  
Since 1 July heating degree days 80  
Cooling Degree Days 0 3  
Month to date cooling degree days 112  
Year to date cooling degree days 3975  
Growing Degree Days 8 (Base 50)    
Moisture  
Dew Point 56 °F    
Average Humidity 85    
Maximum Humidity 97    
Minimum Humidity 57    
Precipitation  
Precipitation 0.25 in 0.07 in 1.58 in (1905)
Month to date precipitation 1.54  
Year to date precipitation 55.76  
Sea Level Pressure  
Sea Level Pressure 30.04 in    
Wind  
Wind Speed 5 mph (East)    
Max Wind Speed 10 mph    
Max Gust Speed -    
Visibility 9 miles    
Events Rain , Thunderstorm    
T = Trace of Precipitation, MM = Missing Value Source: NWS Daily Summary

Daily Weather History Graph

Daily Weather History Graph

Search for Another Location

Airport or City:

Trip Planner

Search our weather history database for the weather conditions in past years. The results will help you decide how hot, cold, wet, or windy it might be!

Date:

Astronomy

Dec. 28, 2012 Rise Set
Actual Time 7:15 AM EST 5:43 PM EST
Civil Twilight 6:50 AM EST 6:09 PM EST
Nautical Twilight 6:21 AM EST 6:38 PM EST
Astronomical Twilight 5:53 AM EST 7:06 PM EST
Moon 6:13 PM EST (12/28) 7:13 AM EST (12/28)
Length of Visible Light 11h 18m
Length of Day
10h 27m
Full, 100% of the Moon is Illuminated
Dec 28
Full
Jan 4
Last Quarter
Jan 11
New
Jan 18
First Quarter
Jan 26
Full

Hourly Weather History & Observations

Time (EST) Temp. Windchill Dew Point Humidity Pressure Visibility Wind Dir Wind Speed Gust Speed Precip Events Conditions
12:53 AM 44.1 °F 40.1 °F 41.0 °F 89% 30.09 in 10.0 mi NE 6.9 mph - N/A   Clear
1:53 AM 43.0 °F 40.3 °F 41.0 °F 93% 30.09 in 9.0 mi NE 4.6 mph - N/A   Clear
2:53 AM 44.1 °F 42.5 °F 42.1 °F 93% 30.09 in 10.0 mi NE 3.5 mph - N/A   Clear
3:53 AM 44.1 °F 42.5 °F 42.1 °F 93% 30.08 in 10.0 mi East 3.5 mph - N/A   Clear
4:53 AM 42.1 °F 40.2 °F 39.9 °F 92% 30.08 in 9.0 mi NE 3.5 mph - 0.01 in   Clear
6:53 AM 43.0 °F 41.3 °F 41.0 °F 93% 30.09 in 9.0 mi ENE 3.5 mph - N/A   Partly Cloudy
7:53 AM 46.0 °F 43.9 °F 44.1 °F 93% 30.10 in 7.0 mi NE 4.6 mph - N/A   Partly Cloudy
8:53 AM 54.0 °F - 48.9 °F 83% 30.10 in 10.0 mi East 8.1 mph - N/A   Partly Cloudy
9:53 AM 62.1 °F - 51.1 °F 67% 30.10 in 10.0 mi East 5.8 mph - N/A   Clear
10:53 AM 68.0 °F - 53.1 °F 59% 30.10 in 10.0 mi East 8.1 mph - N/A   Scattered Clouds
11:53 AM 72.0 °F - 55.9 °F 57% 30.08 in 10.0 mi SE 8.1 mph - N/A   Mostly Cloudy
12:53 PM 75.0 °F - 59.0 °F 57% 30.04 in 10.0 mi SSE 9.2 mph - N/A   Mostly Cloudy
1:53 PM 73.0 °F - 60.1 °F 64% 30.01 in 10.0 mi SSE 10.4 mph - N/A   Overcast
2:53 PM 71.1 °F - 63.0 °F 75% 30.00 in 7.0 mi ESE 5.8 mph - 0.01 in Rain Light Rain
3:53 PM 69.1 °F - 63.0 °F 81% 29.98 in 10.0 mi ENE 5.8 mph - 0.00 in   Mostly Cloudy
4:53 PM 66.9 °F - 64.0 °F 90% 29.99 in 5.0 mi East 5.8 mph - 0.07 in Rain Rain
5:53 PM 66.0 °F - 64.0 °F 93% 29.98 in 10.0 mi East 5.8 mph - 0.12 in Rain Light Rain
6:20 PM 66.2 °F - 64.4 °F 94% 29.99 in 10.0 mi East 3.5 mph - 0.01 in Rain , Thunderstorm Light Rain
6:35 PM 66.2 °F - 64.4 °F 94% 29.99 in 10.0 mi ENE 4.6 mph - 0.01 in   Overcast
6:53 PM 66.0 °F - 64.0 °F 93% 30.00 in 10.0 mi NNE 5.8 mph - 0.01 in   Overcast
7:53 PM 66.0 °F - 64.9 °F 96% 30.01 in 8.0 mi East 6.9 mph - 0.01 in Rain Light Rain
8:53 PM 66.9 °F - 64.9 °F 93% 30.01 in 8.0 mi Calm Calm - 0.01 in Rain Light Rain
9:53 PM 64.9 °F - 64.0 °F 97% 30.01 in 6.0 mi Calm Calm - 0.01 in   Mostly Cloudy
10:53 PM 66.0 °F - 64.9 °F 96% 30.00 in 8.0 mi ESE 3.5 mph - N/A   Overcast
11:53 PM 66.0 °F - 64.9 °F 96% 29.98 in 7.0 mi SE 3.5 mph - N/A   Scattered Clouds